When you browse on this site, cookies collect data to enhance your experience and personalize the content and advertising you see.
Visit our Privacy Policy to learn more. By continuing to use the site, you agree to this use of cookies and data.
  • In Slovakia
  • List of Countries
  • For 7 days
  • Water Temperature
  • Satellite Maps
  • Weather Map
  • Weather Widgets
  • user-avatar
    Login

    Hourly Weather Balchik

    Today, 20 June, Thursday

    Time Temperature Precipitation Wind Pressure Humidity
    00:00 +20°C° 0 mm 1 mps 737 mmHg 73%
    01:00 +20°C° 0 mm 1 mps 736 mmHg 73%
    02:00 +20°C° 0 mm 1 mps 736 mmHg 73%
    03:00 +20°C° 0 mm 1 mps 736 mmHg 73%
    04:00 +20°C° 0 mm 1 mps 736 mmHg 73%
    05:00 +20°C° 0 mm 1 mps 736 mmHg 73%
    06:00 +20°C° 0.2 mm 2 mps 736 mmHg 72%
    07:00 +23°C° 0.2 mm 2 mps 736 mmHg 70%
    08:00 +25°C° 0.2 mm 2 mps 736 mmHg 68%
    09:00 +26°C° 0.8 mm 3 mps 737 mmHg 64%
    10:00 +27°C° 0.8 mm 3 mps 737 mmHg 60%
    11:00 +29°C° 0.8 mm 3 mps 737 mmHg 56%
    12:00 +29°C° 0.5 mm 3 mps 737 mmHg 53%
    13:00 +30°C° 0.5 mm 3 mps 737 mmHg 51%
    14:00 +30°C° 0.5 mm 3 mps 737 mmHg 49%
    15:00 +30°C° 0 mm 3 mps 736 mmHg 51%
    16:00 +30°C° 0 mm 3 mps 736 mmHg 52%
    17:00 +29°C° 0 mm 3 mps 736 mmHg 54%
    18:00 +27°C° 0.2 mm 3 mps 736 mmHg 64%
    19:00 +25°C° 0.2 mm 3 mps 736 mmHg 74%
    20:00 +21°C° 0.2 mm 2 mps 736 mmHg 83%
    21:00 +20°C° 0 mm 2 mps 736 mmHg 86%
    22:00 +20°C° 0 mm 2 mps 736 mmHg 89%
    23:00 +19°C° 0 mm 2 mps 737 mmHg 91%

    Tomorrow, 21 June, Friday

    Time Temperature Precipitation Wind Pressure Humidity
    00:00 +19°C° 0 mm 2 mps 737 mmHg 89%
    01:00 +20°C° 0 mm 1 mps 736 mmHg 87%
    02:00 +21°C° 0 mm 1 mps 736 mmHg 85%
    03:00 +21°C° 0 mm 1 mps 736 mmHg 83%
    04:00 +20°C° 0 mm 2 mps 737 mmHg 82%
    05:00 +20°C° 0 mm 2 mps 737 mmHg 80%
    06:00 +21°C° 0.2 mm 2 mps 737 mmHg 81%
    07:00 +21°C° 0.2 mm 2 mps 737 mmHg 81%
    08:00 +21°C° 0.2 mm 2 mps 738 mmHg 81%
    09:00 +21°C° 0.3 mm 2 mps 738 mmHg 81%
    10:00 +21°C° 0.3 mm 3 mps 738 mmHg 81%
    11:00 +21°C° 0.3 mm 3 mps 738 mmHg 80%
    12:00 +24°C° 0.5 mm 3 mps 738 mmHg 76%
    13:00 +25°C° 0.5 mm 3 mps 738 mmHg 71%
    14:00 +26°C° 0.5 mm 3 mps 738 mmHg 67%
    15:00 +26°C° 0.5 mm 2 mps 738 mmHg 70%
    16:00 +25°C° 0.5 mm 2 mps 738 mmHg 73%
    17:00 +24°C° 0.5 mm 2 mps 737 mmHg 77%
    18:00 +22°C° 0.5 mm 3 mps 737 mmHg 79%
    19:00 +21°C° 0.5 mm 3 mps 737 mmHg 81%
    20:00 +21°C° 0.5 mm 4 mps 737 mmHg 83%
    21:00 +20°C° 0 mm 3 mps 737 mmHg 85%
    22:00 +20°C° 0 mm 3 mps 738 mmHg 87%
    23:00 +20°C° 0 mm 2 mps 738 mmHg 89%

    Day after tomorrow, 22 June, Saturday

    Time Temperature Precipitation Wind Pressure Humidity
    00:00 +20°C° 0.1 mm 2 mps 738 mmHg 88%
    01:00 +20°C° 0.1 mm 3 mps 738 mmHg 87%
    02:00 +20°C° 0.1 mm 3 mps 737 mmHg 86%
    03:00 +19°C° 0 mm 3 mps 737 mmHg 86%
    04:00 +19°C° 0 mm 3 mps 737 mmHg 86%
    05:00 +19°C° 0 mm 3 mps 737 mmHg 86%
    06:00 +21°C° 0.1 mm 3 mps 738 mmHg 81%
    07:00 +22°C° 0.1 mm 4 mps 738 mmHg 77%
    08:00 +23°C° 0.1 mm 4 mps 739 mmHg 72%
    09:00 +26°C° 0 mm 4 mps 739 mmHg 66%
    10:00 +28°C° 0 mm 4 mps 739 mmHg 60%
    11:00 +29°C° 0 mm 4 mps 739 mmHg 54%
    12:00 +30°C° 0 mm 4 mps 739 mmHg 52%
    13:00 +31°C° 0 mm 3 mps 739 mmHg 49%
    14:00 +33°C° 0 mm 3 mps 739 mmHg 47%
    15:00 +31°C° 0.3 mm 3 mps 738 mmHg 50%
    16:00 +30°C° 0.3 mm 3 mps 738 mmHg 54%
    17:00 +29°C° 0.3 mm 3 mps 738 mmHg 58%
    18:00 +27°C° 0.5 mm 2 mps 738 mmHg 64%
    19:00 +25°C° 0.5 mm 2 mps 738 mmHg 69%
    20:00 +22°C° 0.5 mm 1 mps 738 mmHg 75%
    21:00 +22°C° 0 mm 1 mps 738 mmHg 76%
    22:00 +22°C° 0 mm 1 mps 738 mmHg 78%
    23:00 +19°C° 0 mm 0 mps 738 mmHg 79%

    23 June, Sunday

    Time Temperature Precipitation Wind Pressure Humidity
    00:00 +19°C° 0 mm 0 mps 738 mmHg 79%
    01:00 +19°C° 0 mm 0 mps 738 mmHg 79%
    02:00 +19°C° 0 mm 0 mps 737 mmHg 80%
    03:00 +21°C° 0 mm 1 mps 737 mmHg 79%
    04:00 +21°C° 0 mm 1 mps 737 mmHg 79%
    05:00 +21°C° 0 mm 1 mps 737 mmHg 78%
    06:00 +23°C° 0 mm 1 mps 738 mmHg 72%
    07:00 +25°C° 0 mm 1 mps 738 mmHg 67%
    08:00 +27°C° 0 mm 2 mps 738 mmHg 61%
    09:00 +28°C° 0 mm 2 mps 738 mmHg 55%
    10:00 +29°C° 0 mm 2 mps 738 mmHg 50%
    11:00 +30°C° 0 mm 2 mps 738 mmHg 44%
    12:00 +31°C° 0 mm 2 mps 738 mmHg 43%
    13:00 +31°C° 0 mm 2 mps 738 mmHg 41%
    14:00 +32°C° 0 mm 2 mps 738 mmHg 40%
    15:00 +31°C° 0 mm 2 mps 737 mmHg 43%
    16:00 +30°C° 0 mm 3 mps 737 mmHg 46%
    17:00 +30°C° 0 mm 3 mps 737 mmHg 49%
    18:00 +28°C° 0 mm 2 mps 736 mmHg 54%
    19:00 +26°C° 0 mm 2 mps 736 mmHg 59%
    20:00 +24°C° 0 mm 2 mps 736 mmHg 63%
    21:00 +24°C° 0 mm 2 mps 736 mmHg 62%
    22:00 +23°C° 0 mm 1 mps 736 mmHg 60%
    23:00 +23°C° 0 mm 1 mps 737 mmHg 58%

    24 June, Monday

    Time Temperature Precipitation Wind Pressure Humidity
    00:00 +23°C° 0 mm 1 mps 737 mmHg 58%
    01:00 +23°C° 0 mm 1 mps 737 mmHg 58%
    02:00 +21°C° 0 mm 2 mps 737 mmHg 58%
    03:00 +21°C° 0 mm 2 mps 737 mmHg 67%
    04:00 +20°C° 0 mm 3 mps 737 mmHg 76%
    05:00 +19°C° 0 mm 3 mps 737 mmHg 85%
    06:00 +21°C° 0 mm 4 mps 737 mmHg 80%
    07:00 +22°C° 0 mm 4 mps 737 mmHg 76%
    08:00 +25°C° 0 mm 4 mps 738 mmHg 71%
    09:00 +27°C° 0.3 mm 4 mps 738 mmHg 66%
    10:00 +28°C° 0.3 mm 4 mps 738 mmHg 60%
    11:00 +30°C° 0.3 mm 4 mps 738 mmHg 55%
    12:00 +32°C° 0.2 mm 4 mps 738 mmHg 50%
    13:00 +32°C° 0.2 mm 4 mps 738 mmHg 46%
    14:00 +33°C° 0.2 mm 3 mps 738 mmHg 42%
    15:00 +30°C° 0.4 mm 3 mps 738 mmHg 51%
    16:00 +28°C° 0.4 mm 3 mps 738 mmHg 60%
    17:00 +27°C° 0.4 mm 2 mps 737 mmHg 69%
    18:00 +26°C° 0.6 mm 2 mps 738 mmHg 73%
    19:00 +25°C° 0.6 mm 2 mps 738 mmHg 76%
    20:00 +24°C° 0.6 mm 1 mps 738 mmHg 79%
    21:00 +23°C° 0.3 mm 2 mps 738 mmHg 81%
    22:00 +21°C° 0.3 mm 2 mps 738 mmHg 84%
    23:00 +21°C° 0.3 mm 3 mps 739 mmHg 86%

    25 June, Tuesday

    Time Temperature Precipitation Wind Pressure Humidity
    00:00 +20°C° 0 mm 3 mps 739 mmHg 87%
    01:00 +20°C° 0 mm 3 mps 738 mmHg 89%
    02:00 +20°C° 0 mm 4 mps 738 mmHg 90%
    03:00 +19°C° 0.1 mm 4 mps 738 mmHg 90%
    04:00 +19°C° 0.1 mm 4 mps 738 mmHg 91%
    05:00 +19°C° 0.1 mm 4 mps 739 mmHg 91%
    06:00 +20°C° 0 mm 4 mps 739 mmHg 85%
    07:00 +22°C° 0 mm 4 mps 739 mmHg 79%
    08:00 +25°C° 0 mm 5 mps 740 mmHg 74%
    09:00 +27°C° 0.1 mm 5 mps 740 mmHg 66%
    10:00 +28°C° 0.1 mm 5 mps 740 mmHg 59%
    11:00 +30°C° 0.1 mm 5 mps 740 mmHg 51%
    12:00 +30°C° 0.4 mm 5 mps 740 mmHg 51%
    13:00 +32°C° 0.4 mm 5 mps 740 mmHg 51%
    14:00 +32°C° 0.4 mm 5 mps 741 mmHg 50%
    15:00 +32°C° 0.5 mm 4 mps 740 mmHg 53%
    16:00 +30°C° 0.5 mm 4 mps 740 mmHg 55%
    17:00 +30°C° 0.5 mm 4 mps 740 mmHg 58%
    18:00 +28°C° 1.1 mm 4 mps 740 mmHg 66%
    19:00 +26°C° 1.1 mm 3 mps 740 mmHg 74%
    20:00 +24°C° 1.1 mm 2 mps 740 mmHg 82%
    21:00 +24°C° 0.6 mm 3 mps 741 mmHg 84%
    22:00 +22°C° 0.6 mm 3 mps 741 mmHg 86%
    23:00 +21°C° 0.6 mm 4 mps 741 mmHg 88%
    Show more